Flag Weather past 2 weeks in Fort St. John, British Columbia, Canada

Now
-2 °F

Light snow. Overcast.


Feels Like: -18 °F
Forecast: -13 / -2 °F
Wind: 9 mph from North

Location: Fort St John

Current Time: Nov 27, 2014 at 3:20:25 PM

Latest Report: Nov 27, 2014 at 2:00 PM


Visibility: 5 mi

Pressure: 30.40 "Hg

Humidity: 71%

Dew point: -9 °F

Location of Fort St. JohnLocation

Historic Weather in Fort St. John — Graph

°F

Fort St. John temperature yesterday

Maximum temperature yesterday: 14 °F (at 5:00 PM)
Minimum temperature yesterday: 0 °F (at 8:00 AM)
Average temperature yesterday: 6 °F

Past Weeks' High & Low Weather Summary

 TemperatureHumidityPressure
High39 °F (Nov 20, 1:00 PM)100% (Nov 21, 2:00 AM)30.80 "Hg (Nov 21, 2:00 AM)
Low-9 °F (Nov 13, 4:48 AM)55% (Nov 17, 5:00 PM)29.39 "Hg (Nov 22, 12:00 AM)
Average11 °F81%30.18 "Hg
* Reported Nov 12 2:00 PM — Nov 27 2:00 PM, Fort St. John, Weather by CustomWeather, © 2014

Note: Actual official high and low records may vary slightly from our data, if they occured in-between our weather recording intervals... More about our weather records

Advertising

Fort St. John weather history for previous 24 hours

 ConditionsComfort  
Time TempWeatherWind HumidityBarometerVisibility
2:00 PM
Nov 27
-2 °FLight snow. Overcast.9 mph71%30.40 "Hg5 mi
1:00 PM-2 °FLight snow. More clouds than sun.15 mph71%30.42 "Hg5 mi
12:00 PM-2 °FLight snow. Overcast.13 mph71%30.44 "Hg2 mi
11:00 AM-2 °FLight snow. Overcast.13 mph77%30.45 "Hg2 mi
10:00 AM-2 °FLight snow. Overcast.12 mph77%30.45 "Hg1 mi
9:47 AM-2 °FLight snow. Overcast.15 mph77%30.44 "Hg1 mi
9:00 AM0 °FLight snow. Low clouds.13 mph71%30.42 "Hg1 mi
8:53 AM0 °FLight snow. Overcast.12 mph71%30.42 "Hg1 mi
8:00 AM1 °FLight snow. Overcast.13 mph71%30.42 "Hg4 mi
7:00 AM1 °FLight snow. Overcast.15 mph78%30.41 "Hg4 mi
6:00 AM1 °FLight snow. Mostly cloudy.14 mph78%30.39 "Hg3 mi
5:00 AM3 °FLight snow. Mostly cloudy.14 mph78%30.38 "Hg3 mi
4:00 AM3 °FLight snow. Mostly cloudy.13 mph78%30.39 "Hg15 mi
3:00 AM3 °FLight snow. Mostly cloudy.10 mph78%30.41 "Hg10 mi
2:00 AM3 °FLight snow. Mostly cloudy.16 mph78%30.40 "Hg10 mi
1:00 AM3 °FMostly cloudy.14 mph78%30.41 "Hg15 mi
12:00 AM5 °FLight snow. Mostly cloudy.17 mph78%30.42 "Hg10 mi
11:00 PM
Nov 26
5 °FLight snow. Mostly cloudy.20 mph78%30.42 "Hg6 mi
10:00 PM5 °FLight snow. Mostly cloudy.18 mph85%30.41 "Hg2 mi
9:00 PM7 °FLight snow. Mostly cloudy.20 mph78%30.40 "Hg8 mi
8:00 PM7 °FLight snow. Mostly cloudy.18 mph85%30.40 "Hg8 mi
7:00 PM10 °FLight snow. Mostly cloudy.13 mph85%30.38 "Hg8 mi
6:00 PM12 °FLight snow. Overcast.14 mph85%30.36 "Hg10 mi
5:00 PM14 °FLight snow. Overcast.14 mph85%30.35 "Hg15 mi
4:00 PM12 °FOvercast.10 mph85%30.35 "Hg15 mi
3:00 PM7 °FPartly sunny.5 mph85%30.35 "Hg15 mi
Weather by CustomWeather, © 2014

See weather overviewHow to use our weather pages